San Bernardino, CA

1:42 PM PST on December 09, 2019 (GMT -0800)
San Bernardino International

Weather History for KSBD - May, 2019

Change the Weather History Date:

Saturday, May 4, 2019

  Actual Average Record
Temperature  
Mean Temperature 68 °F -  
Max Temperature 82 °F 78 °F 96 °F (2017)
Min Temperature 54 °F 51 °F 53 °F (2012)
Cooling Degree Days 3    
Growing Degree Days 18 (Base 50)    
Moisture  
Dew Point 48 °F    
Average Humidity 59    
Maximum Humidity 78    
Minimum Humidity 20    
Precipitation  
Precipitation 0.00 in - - ()
Sea Level Pressure  
Sea Level Pressure 29.90 in    
Wind  
Wind Speed 3 mph (WSW)    
Max Wind Speed 12 mph    
Max Gust Speed -    
Visibility 9 miles    
Events      
Averages and records for this station are not official NWS values.
T = Trace of Precipitation, MM = Missing Value Source: NWS Daily Summary

Daily Weather History Graph

Daily Weather History Graph

Search for Another Location

Airport or City:

Astronomy

May. 04, 2019 Rise Set
Actual Time 5:56 AM PDT 7:35 PM PDT
Civil Twilight 5:29 AM PDT 8:02 PM PDT
Nautical Twilight 4:57 AM PDT 8:34 PM PDT
Astronomical Twilight 4:23 AM PDT 9:08 PM PDT
Moon 6:05 AM PDT (5/4) 7:32 PM PDT (5/4)
Length of Visible Light 14h 32m
Length of Day
13h 38m
Waning Crescent, 0% of the Moon is Illuminated
May 4
Waning Crescent
May 4
New
May 11
First Quarter
May 18
Full
May 26
Last Quarter

Hourly Weather History & Observations

Time (PDT) Temp. Dew Point Humidity Pressure Visibility Wind Dir Wind Speed Gust Speed Precip Events Conditions
12:00 AM 61.9 °F 51.1 °F 68% 29.95 in 10.0 mi WSW 3.5 mph - N/A   Clear
12:20 AM 61.9 °F 51.4 °F 69% 29.95 in 10.0 mi West 3.5 mph - N/A   Clear
12:40 AM 61.3 °F 51.1 °F 69% 29.95 in 10.0 mi WSW 4.6 mph - N/A   Clear
1:00 AM 61.7 °F 51.1 °F 68% 29.95 in 10.0 mi WSW 3.5 mph - N/A   Clear
1:20 AM 60.8 °F 50.9 °F 70% 29.95 in 10.0 mi WSW 3.5 mph - N/A   Clear
1:40 AM 60.1 °F 50.5 °F 71% 29.94 in 10.0 mi WSW 3.5 mph - N/A   Clear
2:00 AM 60.1 °F 50.4 °F 70% 29.94 in 10.0 mi Calm Calm - N/A   Clear
2:20 AM 60.3 °F 50.4 °F 70% 29.94 in 10.0 mi Calm Calm - N/A   Clear
2:40 AM 59.2 °F 50.0 °F 72% 29.94 in 10.0 mi Calm Calm - N/A   Clear
3:00 AM 58.1 °F 49.6 °F 73% 29.93 in 10.0 mi Calm Calm - N/A   Clear
3:20 AM 58.1 °F 49.1 °F 72% 29.92 in 10.0 mi Calm Calm - N/A   Clear
3:40 AM 56.8 °F 48.4 °F 73% 29.92 in 10.0 mi Calm Calm - N/A   Clear
4:00 AM 56.5 °F 48.9 °F 76% 29.92 in 10.0 mi Calm Calm - N/A   Clear
4:20 AM 55.4 °F 47.5 °F 75% 29.92 in 10.0 mi Calm Calm - N/A   Clear
4:40 AM 54.9 °F 46.9 °F 75% 29.92 in 10.0 mi Calm Calm - N/A   Clear
5:00 AM 54.7 °F 47.3 °F 76% 29.92 in 10.0 mi Calm Calm - N/A   Clear
5:20 AM 54.0 °F 47.1 °F 78% 29.91 in 10.0 mi Calm Calm - N/A   Clear
5:40 AM 54.0 °F 47.1 °F 78% 29.91 in 10.0 mi Calm Calm - N/A   Clear
6:52 AM 55.4 °F 46.4 °F 72% 29.92 in 5.0 mi Calm Calm - N/A   Haze
7:48 AM 57.2 °F 50.0 °F 77% 29.94 in 7.0 mi Calm Calm - N/A   Clear
8:48 AM 60.8 °F 50.0 °F 68% 29.94 in 5.0 mi Calm Calm - N/A   Haze
9:50 AM 66.2 °F 48.2 °F 52% 29.93 in 7.0 mi Calm Calm - N/A   Clear
10:50 AM 71.6 °F 48.2 °F 43% 29.93 in 5.0 mi Calm Calm - N/A   Clear
11:50 AM 75.2 °F 44.6 °F 34% 29.91 in 5.0 mi Calm Calm - N/A   Haze
12:50 PM 78.8 °F 37.4 °F 23% 29.89 in 5.0 mi West 3.5 mph - N/A   Haze
1:49 PM 80.6 °F 35.6 °F 20% 29.87 in 5.0 mi WNW 8.1 mph - N/A   Haze
2:50 PM 82.4 °F 37.4 °F 20% 29.86 in 5.0 mi SW 9.2 mph - N/A   Haze
3:50 PM 82.4 °F 42.8 °F 25% 29.84 in 5.0 mi WSW 11.5 mph - N/A   Haze
4:50 PM 82.4 °F 44.6 °F 26% 29.83 in 5.0 mi SW 9.2 mph - N/A   Haze
5:50 PM 78.8 °F 44.6 °F 30% 29.83 in 7.0 mi WSW 11.5 mph - N/A   Clear
6:52 PM 73.4 °F 48.2 °F 41% 29.82 in 10.0 mi SW 11.5 mph - N/A   Clear
7:47 PM 71.6 °F 50.0 °F 46% 29.83 in 10.0 mi SW 10.4 mph - N/A   Clear
8:50 PM 66.2 °F 50.0 °F 56% 29.86 in 10.0 mi SW 9.2 mph - N/A   Clear
9:40 PM 65.3 °F 49.3 °F 56% 29.87 in 10.0 mi WSW 5.8 mph - N/A   Clear
10:01 PM 64.6 °F 48.9 °F 57% 29.87 in 10.0 mi SW 3.5 mph - N/A   Clear
10:20 PM 64.4 °F 48.7 °F 57% 29.87 in 10.0 mi WSW 3.5 mph - N/A   Clear
10:40 PM 63.5 °F 48.7 °F 59% 29.87 in 10.0 mi WSW 3.5 mph - N/A   Clear
11:00 PM 62.4 °F 48.7 °F 61% 29.88 in 10.0 mi West 5.8 mph - N/A   Clear
11:20 PM 61.0 °F 49.1 °F 65% 29.88 in 10.0 mi West 5.8 mph - N/A   Clear
11:40 PM 61.2 °F 50.0 °F 67% 29.88 in 10.0 mi WSW 5.8 mph - N/A   Clear